IRIDIUM 33 DEB, 33860

Orbit data source: Space-Track

IRIDIUM 33 DEB, 33860 is space debris in LEO originally from a launch on Sun, 14 Sep 1997 UTC launched from the Tyuratam Missile And Space Complex (TTMTR). The debris from Iridium 33, an American commercial communications satellite, has been tracked extensively since its accidental collision with the defunct Russian satellite Cosmos 2251 in 2009. This event, occurring at high speed in low Earth orbit (LEO), generated thousands of pieces of space debris, significantly increasing the risk of further collisions. The Iridium 33 debris cloud has impacted space traffic management and orbital debris mitigation strategies, making it a subject of ongoing study in space situational awareness.

Loading next visibility...
Identifier
33860, 1997-051AD
Orbit
LEO
Country
Flag of USUS
Related business
Manufacturer
Unknown
Mission
Spacecraft
Bus & Motor
Unknown
Mass
Unknown
Launch date (UTC)
1997-09-14 (28 years ago)
Launch vehicle
Unknown
Launch site
Tyuratam Missile And Space Complex (TTMTR)
Object type
Payload
Rocket body
Debris
Shape & HBR
Unknown shape, 0.1 m
Radar Cross Section
Small (<0.1 m²)

Expand to show TLE details & history
Last TLE update: 10 hours ago

TLE from 10 hours ago
0 IRIDIUM 33 DEB
1 33860U 97051AD  26062.30291959  .00010252  00000-0  17461-2 0  9997
2 33860  86.3875 351.5413 0011701  64.4794  54.2875 14.68916727899047
Epoch: 2026-03-03T07:16Z
TLE epoch observation values (Epoch: 2026-03-03T07:16:12.252Z)
Latitude
61.01304°
Longitude
-105.10169°
Altitude
670.239 km
Speed
7.53 km/s
True Right ascension
11h 00m 07s
True Declination
60° 51' 55"
Sunlit
Object was in full shadow at epoch
Visualization orbit readout
Latitude
Unknown
Longitude
Unknown
Altitude
Unknown
Speed
Unknown
Apparent Right ascension
Unknown
Apparent Declination
Unknown
Sunlit
N/A
Visualization observer readout
Local Sidereal Time
20:48:35
Azimuth
Unknown
Elevation
Unknown
Doppler factor
Unknown
Orbital elements
Apogee altitude
669.681 km
Perigee altitude
653.207 km
Semi-major axis
7,039.581 km
Eccentricity
0.00117
Inclination
86.3875°
RAAN
351.5413°
Arg. of periapsis
64.4794°
True anomaly
54.39646°
Mean anomaly
54.2875°
Eccentric anomaly
54.34197°
Mean motion
3.67471 °/min
Orbital period
97.97 mins
BSTAR
0.0017461
Loading maneuver chart data...
Computing Atmospheric mass density...

Documentation

Showing up to 5 results
|